Powrót do katalogu

YUNYAO-1 33

AktywnyPogodaSSO
NORAD 61898·PAYLOAD·🇨🇳 China
Ta nazwa satelity nie została jeszcze potwierdzona przez oficjalne źródła.

Wystrzelony Nov 11, 2024 z Jiuquan Satellite Launch Center

Loading…

Następne Przeloty (najbliższe 24 godziny)

TLE

ŚwieżeSource: Space-Track

Epoka: Sep 14, 2026, 10:56 UTC

1 61898U 24205E   26257.45579615  .00005520  00000-0  31232-3 0  9995
2 61898  97.4040 325.3788 0055848  55.1124 305.5338 15.12111698101703

Śledź YUNYAO-1 33 w czasie rzeczywistym z AllMySat

Download on the App Store